Galveston, TX

12:07 AM CDT on May 24, 2017 (GMT -0500)
Scholes International At Galveston

Weather History for KGLS - November, 2012

Change the Weather History Date:

Saturday, November 10, 2012

  Actual Average Record
Temperature  
Mean Temperature 76 °F 67 °F  
Max Temperature 81 °F 73 °F 84 °F (2005)
Min Temperature 71 °F 60 °F 41 °F (1877)
Degree Days  
Heating Degree Days 0 2  
Month to date heating degree days 0 13  
Since 1 July heating degree days 15 22  
Cooling Degree Days 11 4  
Month to date cooling degree days 82 47  
Year to date cooling degree days 3831 3239  
Growing Degree Days 26 (Base 50)    
Moisture  
Dew Point 66 °F    
Average Humidity 73    
Maximum Humidity 84    
Minimum Humidity 62    
Precipitation  
Precipitation 0.00 in 0.15 in 1.75 in (1878)
Month to date precipitation 0.24 1.50  
Year to date precipitation 43.72 44.23  
Snow  
Snow 0.00 in - 0.00 in (2002)
Month to date snowfall 0.0  
Since 1 July snowfall 0.0  
Since 1 September snowfall 0.0  
Snow Depth 0.00 in    
Sea Level Pressure  
Sea Level Pressure 30.05 in    
Wind  
Wind Speed 14 mph (SSE)    
Max Wind Speed 21 mph    
Max Gust Speed 25 mph    
Visibility 10 miles    
Events      
T = Trace of Precipitation, MM = Missing Value Source: NWS Daily Summary

Daily Weather History Graph

Daily Weather History Graph

Search for Another Location

Airport or City:

Trip Planner

Search our weather history database for the weather conditions in past years. The results will help you decide how hot, cold, wet, or windy it might be!

Date:

Astronomy

Nov. 10, 2012 Rise Set
Actual Time 6:39 AM CST 5:26 PM CST
Civil Twilight 6:14 AM CST 5:51 PM CST
Nautical Twilight 5:46 AM CST 6:20 PM CST
Astronomical Twilight 5:18 AM CST 6:48 PM CST
Moon 3:00 AM CST (11/10) 3:01 PM CST (11/10)
Length of Visible Light 11h 37m
Length of Day
10h 47m
Waning Crescent, 14% of the Moon is Illuminated
Nov 10
Waning Crescent
Nov 13
New
Nov 20
First Quarter
Nov 28
Full
Dec 6
Last Quarter

Hourly Weather History & Observations

Time (CST) Temp. Heat Index Dew Point Humidity Pressure Visibility Wind Dir Wind Speed Gust Speed Precip Events Conditions
12:52 AM 72.0 °F - 64.0 °F 76% 30.09 in 10.0 mi SSE 11.5 mph - N/A   Scattered Clouds
1:52 AM 72.0 °F - 63.0 °F 73% 30.08 in 10.0 mi SSE 12.7 mph - N/A   Clear
2:52 AM 72.0 °F - 63.0 °F 73% 30.07 in 10.0 mi SSE 11.5 mph - N/A   Partly Cloudy
3:52 AM 72.0 °F - 64.0 °F 76% 30.06 in 10.0 mi SSE 15.0 mph - N/A   Scattered Clouds
4:52 AM 73.0 °F - 64.9 °F 76% 30.05 in 10.0 mi SSE 12.7 mph - N/A   Mostly Cloudy
5:52 AM 72.0 °F - 64.9 °F 78% 30.05 in 10.0 mi SSE 10.4 mph - N/A   Clear
6:52 AM 73.0 °F - 66.0 °F 79% 30.06 in 10.0 mi SSE 10.4 mph - N/A   Scattered Clouds
7:52 AM 75.9 °F - 64.9 °F 69% 30.08 in 10.0 mi SSE 12.7 mph - N/A   Scattered Clouds
8:52 AM 77.0 °F - 64.9 °F 66% 30.10 in 10.0 mi SSE 12.7 mph - N/A   Scattered Clouds
9:52 AM 79.0 °F - 66.0 °F 64% 30.12 in 10.0 mi SSE 13.8 mph - N/A   Scattered Clouds
10:52 AM 80.1 °F 82.1 °F 66.0 °F 62% 30.10 in 10.0 mi SSE 15.0 mph - N/A   Scattered Clouds
11:52 AM 80.1 °F 82.1 °F 66.0 °F 62% 30.08 in 10.0 mi SSE 13.8 mph - N/A   Partly Cloudy
12:52 PM 80.1 °F 82.1 °F 66.0 °F 62% 30.06 in 10.0 mi SSE 11.5 mph - N/A   Scattered Clouds
1:52 PM 80.1 °F 82.1 °F 66.0 °F 62% 30.03 in 10.0 mi SSE 15.0 mph - N/A   Partly Cloudy
2:52 PM 80.1 °F 82.1 °F 66.0 °F 62% 30.01 in 10.0 mi SSE 18.4 mph - N/A   Mostly Cloudy
3:52 PM 77.0 °F - 66.9 °F 71% 30.01 in 10.0 mi SE 13.8 mph - N/A   Clear
4:52 PM 75.0 °F - 68.0 °F 79% 30.00 in 10.0 mi SE 11.5 mph - N/A   Clear
5:52 PM 73.9 °F - 68.0 °F 82% 30.01 in 10.0 mi SSE 12.7 mph - N/A   Partly Cloudy
6:52 PM 75.0 °F - 68.0 °F 79% 30.01 in 10.0 mi SE 16.1 mph - N/A   Scattered Clouds
7:52 PM 75.0 °F - 69.1 °F 82% 30.03 in 10.0 mi SSE 12.7 mph - N/A   Overcast
8:52 PM 75.0 °F - 69.1 °F 82% 30.02 in 10.0 mi SE 17.3 mph - N/A   Mostly Cloudy
9:52 PM 75.0 °F - 69.1 °F 82% 30.02 in 10.0 mi SSE 18.4 mph - N/A   Mostly Cloudy
10:52 PM 75.9 °F - 69.1 °F 79% 30.01 in 10.0 mi SSE 18.4 mph 24.2 mph N/A   Overcast
11:52 PM 75.0 °F - 69.1 °F 82% 29.99 in 10.0 mi SSE 17.3 mph - N/A   Overcast